Radiation Dose at Monitoring Post of Fukushima Daini Nuclear Power Station
Date,Time,MP-1(microSv/h),MP-2(microSv/h),MP-3(microSv/h),MP-4(microSv/h),MP-5(microSv/h),MP-6(microSv/h),MP-7(microSv/h),Wind Direction,Wind Velocity(m/s),Rain
2019/08/31,00:00,0.189,0.167,0.284,0.267,0.265,0.143,0.088,-,CALM,No
2019/08/31,00:10,0.188,0.167,0.288,0.266,0.268,0.144,0.089,-,CALM,No
2019/08/31,00:20,0.187,0.168,0.285,0.270,0.264,0.143,0.088,-,CALM,No
2019/08/31,00:30,0.190,0.166,0.284,0.269,0.264,0.144,0.088,-,CALM,No
2019/08/31,00:40,0.189,0.166,0.287,0.268,0.267,0.143,0.089,-,CALM,No
2019/08/31,00:50,0.188,0.167,0.286,0.271,0.264,0.144,0.089,-,CALM,No
2019/08/31,01:00,0.190,0.167,0.285,0.267,0.264,0.144,0.088,-,CALM,No
2019/08/31,01:10,0.190,0.167,0.288,0.266,0.268,0.143,0.089,-,CALM,No
2019/08/31,01:20,0.188,0.167,0.285,0.271,0.264,0.144,0.090,-,CALM,No
2019/08/31,01:30,0.189,0.166,0.284,0.268,0.263,0.142,0.089,-,CALM,No
2019/08/31,01:40,0.190,0.166,0.288,0.266,0.268,0.144,0.089,east,0.8,No
2019/08/31,01:50,0.187,0.167,0.285,0.269,0.267,0.143,0.089,south-southeast,2.2,No
2019/08/31,02:00,0.188,0.167,0.284,0.269,0.263,0.143,0.089,south,1.1,No
2019/08/31,02:10,0.190,0.166,0.288,0.267,0.267,0.143,0.089,south-southwest,0.6,Yes
2019/08/31,02:20,0.187,0.168,0.285,0.270,0.267,0.144,0.089,-,CALM,Yes
2019/08/31,02:30,0.188,0.166,0.284,0.269,0.264,0.143,0.089,-,CALM,Yes
2019/08/31,02:40,0.191,0.167,0.287,0.267,0.266,0.143,0.088,-,CALM,No
2019/08/31,02:50,0.188,0.168,0.287,0.270,0.268,0.144,0.089,-,CALM,No
2019/08/31,03:00,0.187,0.165,0.285,0.268,0.265,0.143,0.088,-,CALM,Yes
2019/08/31,03:10,0.189,0.167,0.286,0.266,0.264,0.142,0.088,north-northeast,0.6,Yes
2019/08/31,03:20,0.188,0.167,0.286,0.269,0.267,0.144,0.089,north,1.1,Yes
2019/08/31,03:30,0.188,0.165,0.284,0.268,0.265,0.144,0.089,north-northwest,1.9,Yes
2019/08/31,03:40,0.190,0.168,0.288,0.266,0.263,0.143,0.088,west-northwest,2.9,Yes
2019/08/31,03:50,0.189,0.169,0.285,0.270,0.267,0.144,0.089,north-northwest,1.4,Yes
2019/08/31,04:00,0.189,0.166,0.285,0.269,0.265,0.145,0.089,north-northeast,2.0,No
2019/08/31,04:10,0.190,0.168,0.287,0.266,0.264,0.144,0.088,northeast,1.1,No
2019/08/31,04:20,0.189,0.168,0.286,0.269,0.267,0.144,0.090,north-northwest,2.3,No
2019/08/31,04:30,0.188,0.166,0.285,0.268,0.264,0.143,0.089,northwest,4.4,No
2019/08/31,04:40,0.189,0.167,0.287,0.267,0.264,0.143,0.088,northwest,4.3,No
2019/08/31,04:50,0.188,0.165,0.284,0.269,0.267,0.143,0.089,northwest,4.9,No
2019/08/31,05:00,0.188,0.166,0.284,0.267,0.264,0.143,0.088,northwest,5.0,Yes
2019/08/31,05:10,0.190,0.167,0.286,0.266,0.265,0.143,0.088,north-northwest,4.8,No
2019/08/31,05:20,0.188,0.165,0.283,0.269,0.266,0.143,0.088,north-northwest,5.1,No
2019/08/31,05:30,0.188,0.167,0.285,0.268,0.264,0.143,0.088,northwest,4.0,No
2019/08/31,05:40,0.189,0.166,0.287,0.266,0.263,0.143,0.088,northwest,3.0,No
2019/08/31,05:50,0.189,0.165,0.284,0.270,0.267,0.142,0.089,north-northwest,2.9,No
2019/08/31,06:00,0.188,0.167,0.286,0.268,0.265,0.143,0.088,northwest,2.4,No
2019/08/31,06:10,0.190,0.166,0.285,0.266,0.264,0.142,0.088,northwest,1.6,No
2019/08/31,06:20,0.188,0.166,0.284,0.270,0.267,0.143,0.088,northwest,1.8,No
2019/08/31,06:30,0.187,0.166,0.286,0.267,0.265,0.143,0.088,northwest,1.0,No
2019/08/31,06:40,0.189,0.165,0.285,0.266,0.261,0.143,0.087,north-northwest,1.2,No
2019/08/31,06:50,0.189,0.167,0.283,0.270,0.266,0.142,0.088,northwest,1.3,No
2019/08/31,07:00,0.187,0.166,0.286,0.266,0.266,0.143,0.088,north-northwest,1.1,No
2019/08/31,07:10,0.189,0.165,0.285,0.266,0.261,0.143,0.087,-,CALM,No
2019/08/31,07:20,0.189,0.164,0.283,0.269,0.264,0.143,0.087,-,CALM,No
2019/08/31,07:30,0.187,0.166,0.285,0.268,0.267,0.142,0.087,east,0.8,No
2019/08/31,07:40,0.186,0.167,0.286,0.266,0.265,0.143,0.088,south-southwest,0.9,No
2019/08/31,07:50,0.188,0.166,0.283,0.265,0.262,0.143,0.087,south-southeast,1.0,No
2019/08/31,08:00,0.189,0.165,0.281,0.263,0.261,0.142,0.088,-,CALM,No
2019/08/31,08:10,0.188,0.164,0.284,0.265,0.263,0.142,0.088,-,CALM,No
2019/08/31,08:20,0.187,0.165,0.286,0.267,0.262,0.144,0.088,southwest,1.3,No
2019/08/31,08:30,0.187,0.166,0.285,0.270,0.268,0.143,0.088,south-southwest,1.4,No
2019/08/31,08:40,0.190,0.167,0.282,0.268,0.266,0.143,0.089,southwest,1.9,No
2019/08/31,08:50,0.188,0.165,0.283,0.267,0.265,0.142,0.088,south-southwest,2.0,No
2019/08/31,09:00,0.187,0.165,0.287,0.265,0.264,0.143,0.089,south-southwest,2.1,No
2019/08/31,09:10,0.187,0.165,0.284,0.271,0.262,0.144,0.088,south-southwest,1.2,No
2019/08/31,09:20,0.187,0.165,0.284,0.270,0.264,0.142,0.087,south,2.0,No
2019/08/31,09:30,0.190,0.165,0.283,0.268,0.263,0.143,0.088,south-southwest,1.8,No
2019/08/31,09:40,0.190,0.165,0.284,0.267,0.267,0.143,0.088,south,1.9,No
2019/08/31,09:50,0.188,0.165,0.288,0.266,0.267,0.143,0.087,south-southeast,1.9,No
2019/08/31,10:00,0.186,0.165,0.287,0.265,0.267,0.142,0.087,south-southeast,2.2,No
2019/08/31,10:10,0.187,0.165,0.284,0.266,0.266,0.143,0.088,south-southeast,2.0,No
2019/08/31,10:20,0.187,0.165,0.283,0.267,0.265,0.142,0.087,south-southeast,2.5,No
2019/08/31,10:30,0.188,0.167,0.282,0.267,0.265,0.144,0.088,southeast,2.8,No
2019/08/31,10:40,0.187,0.166,0.282,0.268,0.265,0.144,0.088,southeast,3.1,No
2019/08/31,10:50,0.187,0.166,0.283,0.267,0.265,0.144,0.088,south-southeast,3.6,No
2019/08/31,11:00,0.187,0.165,0.286,0.268,0.265,0.143,0.088,southeast,1.0,No
2019/08/31,11:10,0.188,0.166,0.289,0.268,0.264,0.143,0.088,south-southeast,2.0,No
2019/08/31,11:20,0.188,0.167,0.288,0.267,0.265,0.145,0.088,south-southeast,0.9,No
2019/08/31,11:30,0.188,0.167,0.286,0.269,0.264,0.144,0.088,south-southeast,2.2,No
2019/08/31,11:40,0.188,0.166,0.285,0.268,0.265,0.144,0.088,south-southeast,3.4,No
2019/08/31,11:50,0.188,0.166,0.283,0.269,0.263,0.144,0.088,south-southeast,3.2,No
2019/08/31,12:00,0.188,0.166,0.284,0.269,0.266,0.143,0.088,south-southeast,2.1,No
2019/08/31,12:10,0.189,0.166,0.285,0.268,0.267,0.145,0.089,south-southeast,2.2,No
2019/08/31,12:20,0.189,0.167,0.284,0.270,0.266,0.144,0.088,southeast,1.5,No
2019/08/31,12:30,0.189,0.167,0.284,0.269,0.267,0.145,0.089,south-southeast,1.0,No
2019/08/31,12:40,0.188,0.167,0.287,0.270,0.266,0.144,0.088,south-southeast,2.3,No
2019/08/31,12:50,0.187,0.167,0.286,0.271,0.266,0.144,0.088,southeast,2.0,No
2019/08/31,13:00,0.189,0.167,0.286,0.271,0.267,0.144,0.088,southeast,3.5,No
2019/08/31,13:10,0.189,0.166,0.285,0.270,0.265,0.145,0.087,southeast,3.8,No
2019/08/31,13:20,0.189,0.166,0.286,0.269,0.264,0.145,0.088,southeast,3.8,No
2019/08/31,13:30,0.189,0.166,0.286,0.269,0.265,0.145,0.088,south-southeast,3.4,No
2019/08/31,13:40,0.189,0.166,0.285,0.270,0.266,0.145,0.088,southeast,2.4,No
2019/08/31,13:50,0.189,0.166,0.286,0.269,0.266,0.144,0.088,south-southeast,2.2,No
2019/08/31,14:00,0.188,0.166,0.284,0.269,0.266,0.144,0.088,south-southeast,4.4,No
2019/08/31,14:10,0.189,0.166,0.284,0.268,0.265,0.143,0.088,southeast,4.6,No
2019/08/31,14:20,0.187,0.167,0.284,0.268,0.265,0.144,0.089,southeast,4.8,No
2019/08/31,14:30,0.188,0.167,0.285,0.270,0.267,0.145,0.088,south-southeast,4.8,No
2019/08/31,14:40,0.188,0.167,0.287,0.269,0.265,0.144,0.089,southeast,4.9,No
2019/08/31,14:50,0.189,0.167,0.287,0.268,0.266,0.143,0.089,south-southeast,4.9,No
2019/08/31,15:00,0.189,0.167,0.287,0.269,0.266,0.143,0.088,south-southeast,5.2,No
2019/08/31,15:10,0.189,0.166,0.285,0.268,0.266,0.144,0.089,southeast,5.3,No
2019/08/31,15:20,0.189,0.167,0.286,0.269,0.266,0.144,0.088,south-southeast,5.5,No
2019/08/31,15:30,0.190,0.166,0.285,0.269,0.266,0.143,0.088,south-southeast,5.6,No
2019/08/31,15:40,0.189,0.166,0.285,0.268,0.266,0.144,0.088,south-southeast,3.9,No
2019/08/31,15:50,0.189,0.165,0.285,0.271,0.266,0.143,0.088,south-southeast,5.5,No
2019/08/31,16:00,0.189,0.166,0.284,0.272,0.266,0.144,0.089,south-southeast,5.2,No
2019/08/31,16:10,0.188,0.166,0.286,0.270,0.266,0.144,0.089,south-southeast,5.3,No
2019/08/31,16:20,0.189,0.166,0.289,0.268,0.266,0.144,0.088,south-southeast,4.6,No
2019/08/31,16:30,0.188,0.167,0.287,0.268,0.266,0.144,0.087,south-southeast,5.7,No
2019/08/31,16:40,0.187,0.167,0.285,0.271,0.266,0.143,0.088,south-southeast,6.5,No
2019/08/31,16:50,0.188,0.165,0.285,0.272,0.265,0.143,0.088,south-southeast,5.9,No
2019/08/31,17:00,0.188,0.166,0.285,0.270,0.264,0.143,0.088,south-southeast,6.4,No
2019/08/31,17:10,0.190,0.167,0.289,0.269,0.264,0.145,0.088,south-southeast,6.8,No
2019/08/31,17:20,0.189,0.167,0.288,0.268,0.264,0.145,0.088,south-southeast,5.9,No
2019/08/31,17:30,0.187,0.167,0.287,0.272,0.264,0.144,0.088,south-southeast,7.0,No
2019/08/31,17:40,0.187,0.166,0.284,0.271,0.266,0.143,0.089,south,6.5,No
2019/08/31,17:50,0.189,0.166,0.286,0.269,0.268,0.144,0.088,south,6.4,No
2019/08/31,18:00,0.190,0.167,0.289,0.268,0.267,0.144,0.087,south,5.2,No
2019/08/31,18:10,0.189,0.166,0.286,0.271,0.265,0.144,0.087,south,4.9,No
2019/08/31,18:20,0.188,0.166,0.285,0.272,0.265,0.143,0.088,south,4.3,No
2019/08/31,18:30,0.189,0.167,0.287,0.269,0.268,0.143,0.088,south,4.0,No
2019/08/31,18:40,0.190,0.168,0.289,0.267,0.267,0.145,0.088,south,3.5,No
2019/08/31,18:50,0.190,0.166,0.286,0.273,0.264,0.145,0.088,south,5.4,No
2019/08/31,19:00,0.189,0.167,0.285,0.271,0.269,0.143,0.089,south,4.4,No
2019/08/31,19:10,0.189,0.167,0.289,0.268,0.269,0.145,0.088,south,4.0,No
2019/08/31,19:20,0.189,0.166,0.288,0.270,0.267,0.144,0.088,south-southwest,2.8,No
2019/08/31,19:30,0.189,0.167,0.286,0.272,0.263,0.143,0.089,south-southwest,2.6,No
2019/08/31,19:40,0.188,0.168,0.288,0.270,0.269,0.144,0.089,southwest,1.6,No
2019/08/31,19:50,0.191,0.166,0.289,0.268,0.268,0.145,0.087,southwest,2.1,No
2019/08/31,20:00,0.189,0.167,0.287,0.274,0.266,0.144,0.088,west,2.2,No
2019/08/31,20:10,0.188,0.168,0.286,0.271,0.266,0.145,0.089,west-northwest,2.1,No
2019/08/31,20:20,0.190,0.167,0.288,0.269,0.268,0.146,0.089,northwest,2.2,No
2019/08/31,20:30,0.191,0.168,0.288,0.270,0.266,0.144,0.089,northwest,1.7,No
2019/08/31,20:40,0.189,0.168,0.287,0.272,0.265,0.145,0.089,west-northwest,1.3,No
2019/08/31,20:50,0.189,0.167,0.289,0.270,0.271,0.145,0.089,northwest,2.7,No
2019/08/31,21:00,0.192,0.168,0.287,0.270,0.267,0.145,0.089,north-northwest,2.9,No
2019/08/31,21:10,0.190,0.168,0.287,0.273,0.266,0.145,0.090,northwest,2.2,No
2019/08/31,21:20,0.189,0.167,0.289,0.271,0.269,0.146,0.090,northwest,0.7,No
2019/08/31,21:30,0.190,0.168,0.288,0.270,0.268,0.144,0.089,north-northwest,1.5,No
2019/08/31,21:40,0.190,0.167,0.287,0.273,0.266,0.144,0.090,northwest,1.9,No
2019/08/31,21:50,0.188,0.167,0.291,0.271,0.267,0.145,0.090,north-northwest,2.2,No
2019/08/31,22:00,0.191,0.168,0.288,0.269,0.269,0.145,0.089,northwest,1.5,No
2019/08/31,22:10,0.191,0.167,0.288,0.272,0.266,0.145,0.090,north-northwest,1.8,No
2019/08/31,22:20,0.189,0.167,0.289,0.272,0.266,0.146,0.090,north-northwest,1.2,No
2019/08/31,22:30,0.191,0.169,0.288,0.268,0.269,0.145,0.089,north-northwest,1.7,No
2019/08/31,22:40,0.190,0.168,0.287,0.272,0.267,0.144,0.089,north-northwest,2.0,No
2019/08/31,22:50,0.189,0.168,0.291,0.272,0.266,0.145,0.089,north-northwest,3.2,Yes
2019/08/31,23:00,0.191,0.168,0.288,0.269,0.270,0.145,0.089,northwest,3.5,Yes
2019/08/31,23:10,0.192,0.168,0.287,0.273,0.267,0.146,0.091,northwest,4.5,Yes
2019/08/31,23:20,0.191,0.169,0.291,0.271,0.266,0.147,0.091,northwest,4.8,No
2019/08/31,23:30,0.191,0.169,0.288,0.271,0.269,0.146,0.090,northwest,4.2,No
2019/08/31,23:40,0.192,0.167,0.289,0.273,0.267,0.145,0.090,northwest,3.6,No
2019/08/31,23:50,0.189,0.169,0.289,0.271,0.265,0.147,0.091,northwest,4.8,No
